Time,TemperatureF,DewpointF,PressureIn,WindDirection,WindDirectionDegrees,WindSpeedMPH,WindSpeedGustMPH,Humidity,HourlyPrecipIn,Conditions,Clouds,dailyrainin,SoftwareType,DateUTC
2013-05-10 00:02:00,-999.0,-99.9,30.31,WSW,250,3.0,4.0,-999,-99.99,,,-99.99,,2013-05-10 08:02:00,
2013-05-10 00:12:00,31.0,-99.9,30.31,West,279,2.0,3.0,-999,-99.99,,,-99.99,,2013-05-10 08:12:00,
2013-05-10 00:22:00,-999.0,-99.9,30.31,WNW,302,1.0,2.0,-999,-99.99,,,-99.99,,2013-05-10 08:22:00,
2013-05-10 00:52:00,-999.0,-99.9,30.30,SW,228,1.0,1.0,-999,-99.99,,,-99.99,,2013-05-10 08:52:00,
2013-05-10 01:02:00,-999.0,-99.9,30.30,SW,226,2.0,3.0,-999,-99.99,,,-99.99,,2013-05-10 09:02:00,
2013-05-10 01:11:00,31.0,-99.9,30.30,SW,220,2.0,2.0,-999,-99.99,,,-99.99,,2013-05-10 09:11:00,
2013-05-10 01:22:00,-999.0,-99.9,30.31,SW,228,2.0,2.0,-999,-99.99,,,-99.99,,2013-05-10 09:22:00,
2013-05-10 01:33:00,-999.0,-99.9,30.31,WSW,248,3.0,3.0,-999,-99.99,,,-99.99,,2013-05-10 09:33:00,
2013-05-10 01:43:00,31.0,-99.9,30.30,SW,225,2.0,4.0,-999,-99.99,,,-99.99,,2013-05-10 09:43:00,
2013-05-10 01:53:00,-999.0,-99.9,30.30,SW,214,2.0,3.0,-999,-99.99,,,-99.99,,2013-05-10 09:53:00,
2013-05-10 02:03:00,-999.0,-99.9,30.30,SW,235,2.0,3.0,-999,-99.99,,,-99.99,,2013-05-10 10:03:00,
2013-05-10 02:12:00,31.0,-99.9,30.30,WSW,246,2.0,3.0,-999,-99.99,,,-99.99,,2013-05-10 10:12:00,
2013-05-10 02:23:00,-999.0,-99.9,30.30,SW,226,2.0,2.0,-999,-99.99,,,-99.99,,2013-05-10 10:23:00,
2013-05-10 02:33:00,-999.0,-99.9,30.30,SW,228,1.0,2.0,-999,-99.99,,,-99.99,,2013-05-10 10:33:00,
2013-05-10 02:42:00,31.0,-99.9,30.30,SSW,211,1.0,2.0,-999,-99.99,,,-99.99,,2013-05-10 10:42:00,
2013-05-10 02:53:00,-999.0,-99.9,30.30,SW,221,2.0,2.0,-999,-99.99,,,-99.99,,2013-05-10 10:53:00,
2013-05-10 03:02:00,-999.0,-99.9,30.29,SW,216,2.0,3.0,-999,-99.99,,,-99.99,,2013-05-10 11:02:00,
2013-05-10 03:12:00,31.0,-99.9,30.29,SW,225,3.0,4.0,-999,-99.99,,,-99.99,,2013-05-10 11:12:00,
2013-05-10 03:22:00,-999.0,-99.9,30.29,SW,222,3.0,5.0,-999,-99.99,,,-99.99,,2013-05-10 11:22:00,
2013-05-10 03:32:00,-999.0,-99.9,30.29,SW,220,3.0,4.0,-999,-99.99,,,-99.99,,2013-05-10 11:32:00,
2013-05-10 03:42:00,31.0,-99.9,30.29,SW,234,4.0,5.0,-999,-99.99,,,-99.99,,2013-05-10 11:42:00,
2013-05-10 03:52:00,-999.0,-99.9,30.29,WSW,243,4.0,6.0,-999,-99.99,,,-99.99,,2013-05-10 11:52:00,
2013-05-10 04:02:00,-999.0,-99.9,30.28,SW,232,4.0,5.0,-999,-99.99,,,-99.99,,2013-05-10 12:02:00,
2013-05-10 04:12:00,-999.0,-99.9,30.28,WSW,251,7.0,8.0,-999,-99.99,,,-99.99,,2013-05-10 12:12:00,
2013-05-10 04:22:00,-999.0,-99.9,30.28,WSW,252,6.0,8.0,-999,-99.99,,,-99.99,,2013-05-10 12:22:00,
2013-05-10 04:32:00,-999.0,-99.9,30.28,WSW,253,7.0,8.0,-999,-99.99,,,-99.99,,2013-05-10 12:32:00,
2013-05-10 04:42:00,31.0,-99.9,30.28,WSW,253,7.0,9.0,-999,-99.99,,,-99.99,,2013-05-10 12:42:00,
2013-05-10 04:52:00,-999.0,-99.9,30.27,West,259,7.0,9.0,-999,-99.99,,,-99.99,,2013-05-10 12:52:00,
2013-05-10 05:01:00,-999.0,-99.9,30.27,West,259,6.0,9.0,-999,-99.99,,,-99.99,,2013-05-10 13:01:00,
2013-05-10 05:11:00,30.0,-99.9,30.27,West,262,7.0,9.0,-999,-99.99,,,-99.99,,2013-05-10 13:11:00,
2013-05-10 05:21:00,-999.0,-99.9,30.27,WSW,258,8.0,8.0,-999,-99.99,,,-99.99,,2013-05-10 13:21:00,
2013-05-10 05:32:00,-999.0,-99.9,30.27,West,263,6.0,8.0,-999,-99.99,,,-99.99,,2013-05-10 13:32:00,
2013-05-10 05:42:00,-999.0,-99.9,30.27,WSW,252,7.0,8.0,-999,-99.99,,,-99.99,,2013-05-10 13:42:00,
2013-05-10 05:52:00,-999.0,-99.9,30.27,WSW,249,6.0,8.0,-999,-99.99,,,-99.99,,2013-05-10 13:52:00,
2013-05-10 06:02:00,-999.0,-99.9,30.27,WSW,256,5.0,7.0,-999,-99.99,,,-99.99,,2013-05-10 14:02:00,
2013-05-10 06:11:00,30.0,-99.9,30.27,West,259,6.0,7.0,-999,-99.99,,,-99.99,,2013-05-10 14:11:00,
2013-05-10 06:22:00,-999.0,-99.9,30.27,WSW,256,6.0,8.0,-999,-99.99,,,-99.99,,2013-05-10 14:22:00,
2013-05-10 06:32:00,-999.0,-99.9,30.27,WSW,258,5.0,6.0,-999,-99.99,,,-99.99,,2013-05-10 14:32:00,
2013-05-10 06:42:00,30.0,-99.9,30.27,West,259,6.0,6.0,-999,-99.99,,,-99.99,,2013-05-10 14:42:00,
2013-05-10 06:52:00,-999.0,-99.9,30.26,West,263,4.0,6.0,-999,-99.99,,,-99.99,,2013-05-10 14:52:00,
2013-05-10 07:02:00,-999.0,-99.9,30.26,West,271,5.0,6.0,-999,-99.99,,,-99.99,,2013-05-10 15:02:00,
2013-05-10 07:20:00,-999.0,-99.9,30.26,West,261,4.0,5.0,-999,-99.99,,,-99.99,,2013-05-10 15:20:00,
2013-05-10 07:32:00,-999.0,-99.9,30.26,West,271,4.0,4.0,-999,-99.99,,,-99.99,,2013-05-10 15:32:00,
2013-05-10 07:43:00,30.0,-99.9,30.26,West,269,4.0,4.0,-999,-99.99,,,-99.99,,2013-05-10 15:43:00,
2013-05-10 07:53:00,-999.0,-99.9,30.25,West,279,4.0,4.0,-999,-99.99,,,-99.99,,2013-05-10 15:53:00,
2013-05-10 08:02:00,-999.0,-99.9,30.25,WSW,258,4.0,5.0,-999,-99.99,,,-99.99,,2013-05-10 16:02:00,
2013-05-10 08:12:00,31.0,-99.9,30.25,West,263,4.0,4.0,-999,-99.99,,,-99.99,,2013-05-10 16:12:00,
2013-05-10 08:23:00,-999.0,-99.9,30.25,WSW,248,6.0,7.0,-999,-99.99,,,-99.99,,2013-05-10 16:23:00,
2013-05-10 08:33:00,-999.0,-99.9,30.24,SW,220,2.0,4.0,-999,-99.99,,,-99.99,,2013-05-10 16:33:00,
2013-05-10 08:43:00,-999.0,-99.9,30.24,SW,227,5.0,5.0,-999,-99.99,,,-99.99,,2013-05-10 16:43:00,
2013-05-10 08:53:00,-999.0,-99.9,30.24,SW,222,3.0,5.0,-999,-99.99,,,-99.99,,2013-05-10 16:53:00,
2013-05-10 09:02:00,-999.0,-99.9,30.24,South,188,2.0,3.0,-999,-99.99,,,-99.99,,2013-05-10 17:02:00,
2013-05-10 09:12:00,31.0,-99.9,30.24,SSW,195,3.0,4.0,-999,-99.99,,,-99.99,,2013-05-10 17:12:00,
2013-05-10 09:22:00,-999.0,-99.9,30.24,SSW,194,3.0,4.0,-999,-99.99,,,-99.99,,2013-05-10 17:22:00,
2013-05-10 09:32:00,-999.0,-99.9,30.24,SW,221,3.0,6.0,-999,-99.99,,,-99.99,,2013-05-10 17:32:00,
2013-05-10 09:42:00,31.0,-99.9,30.24,SW,217,2.0,4.0,-999,-99.99,,,-99.99,,2013-05-10 17:42:00,
2013-05-10 09:52:00,-999.0,-99.9,30.24,SW,232,4.0,5.0,-999,-99.99,,,-99.99,,2013-05-10 17:52:00,
2013-05-10 10:11:00,-999.0,-99.9,30.24,SW,234,4.0,6.0,-999,-99.99,,,-99.99,,2013-05-10 18:11:00,
2013-05-10 10:22:00,-999.0,-99.9,30.24,SW,227,4.0,4.0,-999,-99.99,,,-99.99,,2013-05-10 18:22:00,
2013-05-10 10:35:00,-999.0,-99.9,30.23,WSW,238,4.0,5.0,-999,-99.99,,,-99.99,,2013-05-10 18:35:00,
2013-05-10 10:43:00,31.0,-99.9,30.23,WSW,237,4.0,5.0,-999,-99.99,,,-99.99,,2013-05-10 18:43:00,
2013-05-10 10:54:00,-999.0,-99.9,30.23,WSW,247,5.0,5.0,-999,-99.99,,,-99.99,,2013-05-10 18:54:00,
2013-05-10 11:02:00,-999.0,-99.9,30.23,WSW,252,5.0,6.0,-999,-99.99,,,-99.99,,2013-05-10 19:02:00,
2013-05-10 11:11:00,32.0,-99.9,30.23,WSW,242,5.0,6.0,-999,-99.99,,,-99.99,,2013-05-10 19:11:00,
2013-05-10 11:22:00,-999.0,-99.9,30.23,WSW,247,4.0,6.0,-999,-99.99,,,-99.99,,2013-05-10 19:22:00,
2013-05-10 11:32:00,-999.0,-99.9,30.23,SW,235,3.0,4.0,-999,-99.99,,,-99.99,,2013-05-10 19:32:00,
2013-05-10 11:42:00,-999.0,-99.9,30.23,SW,234,3.0,4.0,-999,-99.99,,,-99.99,,2013-05-10 19:42:00,
2013-05-10 11:52:00,-999.0,-99.9,30.23,SW,234,3.0,4.0,-999,-99.99,,,-99.99,,2013-05-10 19:52:00,
2013-05-10 12:02:00,33.0,-99.9,30.22,SW,222,3.0,4.0,-999,-99.99,,,-99.99,,2013-05-10 20:02:00,
2013-05-10 12:12:00,33.0,-99.9,30.22,SW,223,4.0,4.0,-999,-99.99,,,-99.99,,2013-05-10 20:12:00,
2013-05-10 12:22:00,33.0,-99.9,30.22,SSW,197,4.0,4.0,-999,-99.99,,,-99.99,,2013-05-10 20:22:00,
2013-05-10 12:32:00,-999.0,-99.9,30.22,SSW,196,4.0,6.0,-999,-99.99,,,-99.99,,2013-05-10 20:32:00,
2013-05-10 12:42:00,32.0,-99.9,30.22,SSW,199,5.0,6.0,-999,-99.99,,,-99.99,,2013-05-10 20:42:00,
2013-05-10 12:52:00,-999.0,-99.9,30.22,SSW,208,5.0,6.0,-999,-99.99,,,-99.99,,2013-05-10 20:52:00,
2013-05-10 13:02:00,-999.0,-99.9,30.22,SSW,208,5.0,6.0,-999,-99.99,,,-99.99,,2013-05-10 21:02:00,
2013-05-10 13:11:00,-999.0,-99.9,30.22,SSW,208,5.0,6.0,-999,-99.99,,,-99.99,,2013-05-10 21:11:00,
2013-05-10 13:25:00,32.0,-99.9,30.22,SSW,199,5.0,6.0,-999,-99.99,,,-99.99,,2013-05-10 21:25:00,
2013-05-10 13:32:00,34.0,-99.9,30.22,SW,218,4.0,5.0,-999,-99.99,,,-99.99,,2013-05-10 21:32:00,
2013-05-10 13:43:00,34.0,-99.9,30.21,SW,219,4.0,5.0,-999,-99.99,,,-99.99,,2013-05-10 21:43:00,
2013-05-10 13:53:00,34.0,-99.9,30.21,SW,217,3.0,6.0,-999,-99.99,,,-99.99,,2013-05-10 21:53:00,
2013-05-10 14:03:00,33.0,-99.9,30.21,SW,228,5.0,6.0,-999,-99.99,,,-99.99,,2013-05-10 22:03:00,
2013-05-10 14:13:00,34.0,-99.9,30.21,SW,217,4.0,5.0,-999,-99.99,,,-99.99,,2013-05-10 22:13:00,
2013-05-10 14:22:00,33.0,-99.9,30.21,SW,231,5.0,6.0,-999,-99.99,,,-99.99,,2013-05-10 22:22:00,
2013-05-10 14:32:00,33.0,-99.9,30.21,SW,234,6.0,7.0,-999,-99.99,,,-99.99,,2013-05-10 22:32:00,
2013-05-10 14:42:00,33.0,-99.9,30.21,SW,226,6.0,6.0,-999,-99.99,,,-99.99,,2013-05-10 22:42:00,
2013-05-10 14:53:00,33.0,-99.9,30.20,SW,225,4.0,6.0,-999,-99.99,,,-99.99,,2013-05-10 22:53:00,
2013-05-10 15:02:00,33.0,-99.9,30.20,SW,231,5.0,5.0,-999,-99.99,,,-99.99,,2013-05-10 23:02:00,
2013-05-10 15:12:00,33.0,-99.9,30.20,SW,229,4.0,5.0,-999,-99.99,,,-99.99,,2013-05-10 23:12:00,
2013-05-10 15:22:00,33.0,-99.9,30.20,SW,228,5.0,6.0,-999,-99.99,,,-99.99,,2013-05-10 23:22:00,
2013-05-10 15:33:00,33.0,-99.9,30.20,WSW,239,7.0,8.0,-999,-99.99,,,-99.99,,2013-05-10 23:33:00,
2013-05-10 15:42:00,33.0,-99.9,30.20,WSW,245,7.0,8.0,-999,-99.99,,,-99.99,,2013-05-10 23:42:00,
2013-05-10 15:52:00,33.0,-99.9,30.20,WSW,240,8.0,9.0,-999,-99.99,,,-99.99,,2013-05-10 23:52:00,
2013-05-10 16:02:00,33.0,-99.9,30.20,WSW,246,8.0,9.0,-999,-99.99,,,-99.99,,2013-05-11 00:02:00,
2013-05-10 16:11:00,33.0,-99.9,30.19,WSW,257,6.0,8.0,-999,-99.99,,,-99.99,,2013-05-11 00:11:00,
2013-05-10 16:22:00,33.0,-99.9,30.19,West,261,7.0,7.0,-999,-99.99,,,-99.99,,2013-05-11 00:22:00,
2013-05-10 16:32:00,33.0,-99.9,30.19,West,267,6.0,8.0,-999,-99.99,,,-99.99,,2013-05-11 00:32:00,
2013-05-10 16:42:00,33.0,-99.9,30.19,West,264,6.0,7.0,-999,-99.99,,,-99.99,,2013-05-11 00:42:00,
2013-05-10 16:52:00,33.0,-99.9,30.19,West,261,6.0,7.0,-999,-99.99,,,-99.99,,2013-05-11 00:52:00,
2013-05-10 17:01:00,33.0,-99.9,30.19,WSW,256,7.0,8.0,-999,-99.99,,,-99.99,,2013-05-11 01:01:00,
2013-05-10 17:11:00,33.0,-99.9,30.19,WSW,246,7.0,8.0,-999,-99.99,,,-99.99,,2013-05-11 01:11:00,
2013-05-10 17:21:00,33.0,-99.9,30.18,WSW,246,6.0,7.0,-999,-99.99,,,-99.99,,2013-05-11 01:21:00,
2013-05-10 17:32:00,33.0,-99.9,30.18,SW,235,4.0,5.0,-999,-99.99,,,-99.99,,2013-05-11 01:32:00,
2013-05-10 17:42:00,33.0,-99.9,30.18,WSW,246,4.0,6.0,-999,-99.99,,,-99.99,,2013-05-11 01:42:00,
2013-05-10 17:52:00,34.0,-99.9,30.17,SW,223,4.0,4.0,-999,-99.99,,,-99.99,,2013-05-11 01:52:00,
2013-05-10 18:02:00,34.0,-99.9,30.17,SW,224,5.0,5.0,-999,-99.99,,,-99.99,,2013-05-11 02:02:00,
2013-05-10 18:12:00,34.0,-99.9,30.17,WSW,237,5.0,6.0,-999,-99.99,,,-99.99,,2013-05-11 02:12:00,
2013-05-10 18:22:00,34.0,-99.9,30.17,WSW,240,5.0,6.0,-999,-99.99,,,-99.99,,2013-05-11 02:22:00,
2013-05-10 18:32:00,33.0,-99.9,30.16,SW,232,6.0,8.0,-999,-99.99,,,-99.99,,2013-05-11 02:32:00,
2013-05-10 18:42:00,33.0,-99.9,30.16,WSW,243,6.0,8.0,-999,-99.99,,,-99.99,,2013-05-11 02:42:00,
2013-05-10 18:52:00,33.0,-99.9,30.16,WSW,238,6.0,7.0,-999,-99.99,,,-99.99,,2013-05-11 02:52:00,
2013-05-10 19:01:00,33.0,-99.9,30.16,WSW,243,5.0,6.0,-999,-99.99,,,-99.99,,2013-05-11 03:01:00,
2013-05-10 19:11:00,33.0,-99.9,30.16,WSW,243,5.0,6.0,-999,-99.99,,,-99.99,,2013-05-11 03:11:00,
2013-05-10 19:21:00,33.0,-99.9,30.15,WSW,241,5.0,6.0,-999,-99.99,,,-99.99,,2013-05-11 03:21:00,
2013-05-10 19:33:00,33.0,-99.9,30.15,WSW,242,4.0,6.0,-999,-99.99,,,-99.99,,2013-05-11 03:33:00,
2013-05-10 19:43:00,32.0,-99.9,30.16,SW,232,5.0,6.0,-999,-99.99,,,-99.99,,2013-05-11 03:43:00,
2013-05-10 19:53:00,33.0,-99.9,30.15,WSW,237,5.0,6.0,-999,-99.99,,,-99.99,,2013-05-11 03:53:00,
2013-05-10 20:03:00,33.0,-99.9,30.15,WSW,242,6.0,7.0,-999,-99.99,,,-99.99,,2013-05-11 04:03:00,
2013-05-10 20:12:00,32.0,-99.9,30.15,WSW,254,6.0,7.0,-999,-99.99,,,-99.99,,2013-05-11 04:12:00,
2013-05-10 20:23:00,32.0,-99.9,30.15,West,266,5.0,7.0,-999,-99.99,,,-99.99,,2013-05-11 04:23:00,
2013-05-10 20:33:00,32.0,-99.9,30.15,West,263,6.0,6.0,-999,-99.99,,,-99.99,,2013-05-11 04:33:00,
2013-05-10 20:43:00,32.0,-99.9,30.15,WSW,257,6.0,6.0,-999,-99.99,,,-99.99,,2013-05-11 04:43:00,
2013-05-10 20:52:00,32.0,-99.9,30.14,WSW,247,6.0,6.0,-999,-99.99,,,-99.99,,2013-05-11 04:52:00,
2013-05-10 21:02:00,32.0,-99.9,30.14,WSW,251,6.0,6.0,-999,-99.99,,,-99.99,,2013-05-11 05:02:00,
2013-05-10 21:12:00,32.0,-99.9,30.14,West,260,5.0,6.0,-999,-99.99,,,-99.99,,2013-05-11 05:12:00,
2013-05-10 21:22:00,-999.0,-99.9,30.14,West,260,5.0,6.0,-999,-99.99,,,-99.99,,2013-05-11 05:22:00,
2013-05-10 21:32:00,-999.0,-99.9,30.14,West,259,5.0,6.0,-999,-99.99,,,-99.99,,2013-05-11 05:32:00,
2013-05-10 21:43:00,32.0,-99.9,30.14,West,260,5.0,6.0,-999,-99.99,,,-99.99,,2013-05-11 05:43:00,
2013-05-10 21:52:00,-999.0,-99.9,30.14,WSW,245,5.0,5.0,-999,-99.99,,,-99.99,,2013-05-11 05:52:00,
2013-05-10 22:02:00,-999.0,-99.9,30.13,WSW,254,4.0,5.0,-999,-99.99,,,-99.99,,2013-05-11 06:02:00,
2013-05-10 22:12:00,-999.0,-99.9,30.14,WSW,258,4.0,4.0,-999,-99.99,,,-99.99,,2013-05-11 06:12:00,
2013-05-10 22:22:00,-999.0,-99.9,30.14,West,261,4.0,5.0,-999,-99.99,,,-99.99,,2013-05-11 06:22:00,
2013-05-10 22:32:00,-999.0,-99.9,30.14,West,270,5.0,5.0,-999,-99.99,,,-99.99,,2013-05-11 06:32:00,
2013-05-10 22:42:00,31.0,-99.9,30.14,West,274,5.0,6.0,-999,-99.99,,,-99.99,,2013-05-11 06:42:00,
2013-05-10 22:53:00,-999.0,-99.9,30.13,WNW,284,5.0,6.0,-999,-99.99,,,-99.99,,2013-05-11 06:53:00,
2013-05-10 23:02:00,-999.0,-99.9,30.13,West,279,5.0,6.0,-999,-99.99,,,-99.99,,2013-05-11 07:02:00,
2013-05-10 23:12:00,31.0,-99.9,30.13,West,278,5.0,6.0,-999,-99.99,,,-99.99,,2013-05-11 07:12:00,
2013-05-10 23:22:00,-999.0,-99.9,30.14,West,277,6.0,7.0,-999,-99.99,,,-99.99,,2013-05-11 07:22:00,
2013-05-10 23:32:00,-999.0,-99.9,30.14,WNW,283,5.0,6.0,-999,-99.99,,,-99.99,,2013-05-11 07:32:00,
2013-05-10 23:42:00,-999.0,-99.9,30.13,WNW,282,4.0,5.0,-999,-99.99,,,-99.99,,2013-05-11 07:42:00,
2013-05-10 23:52:00,-999.0,-99.9,30.13,West,272,5.0,5.0,-999,-99.99,,,-99.99,,2013-05-11 07:52:00,